Retour au catalogue

ATLAS 5 CENTAUR DEB

LostHEO
NORAD 52043·DEBRIS·🇺🇸 United States

Lancé Oct 17, 2018 depuis Cape Canaveral Space Force Station

Loading…

Prochains Passages (prochaines 24 heures)

TLE

PériméSource: Space-Track

Époque: Aug 4, 2024, 14:13 UTC

1 52043U 18079GM  24217.59265193 -.00000072  00000-0  00000+0 0  9994
2 52043  10.6880 130.4192 4399245 138.7018 264.4071  1.73935675 19014

Suivez ATLAS 5 CENTAUR DEB en temps réel avec AllMySat

Download on the App Store